Hourly Weather Taraz

Today, 9 May, Sunday

Time Temperature Precipitation Wind Pressure Humidity
00:00 +18°C° 0 mm 2 mps 705 mmHg 61%
01:00 +18°C° 0 mm 2 mps 705 mmHg 61%
02:00 +18°C° 0 mm 2 mps 705 mmHg 62%
03:00 +18°C° 0 mm 2 mps 704 mmHg 61%
04:00 +17°C° 0 mm 2 mps 704 mmHg 60%
05:00 +17°C° 0 mm 2 mps 704 mmHg 59%
06:00 +20°C° 0 mm 2 mps 704 mmHg 53%
07:00 +22°C° 0 mm 3 mps 705 mmHg 48%
08:00 +25°C° 0 mm 3 mps 705 mmHg 42%
09:00 +23°C° 0 mm 4 mps 705 mmHg 43%
10:00 +23°C° 0 mm 5 mps 706 mmHg 43%
11:00 +23°C° 0 mm 6 mps 707 mmHg 44%
12:00 +21°C° 0.4 mm 5 mps 707 mmHg 53%
13:00 +20°C° 0.4 mm 4 mps 707 mmHg 62%
14:00 +19°C° 0.4 mm 3 mps 707 mmHg 72%
15:00 +19°C° 0.6 mm 3 mps 707 mmHg 69%
16:00 +20°C° 0.6 mm 2 mps 706 mmHg 66%
17:00 +21°C° 0.6 mm 2 mps 706 mmHg 63%
18:00 +21°C° 0 mm 1 mps 706 mmHg 68%
19:00 +20°C° 0 mm 1 mps 706 mmHg 72%
20:00 +19°C° 0 mm 1 mps 706 mmHg 77%
21:00 +18°C° 0 mm 1 mps 706 mmHg 78%
22:00 +18°C° 0 mm 1 mps 706 mmHg 79%
23:00 +18°C° 0 mm 1 mps 706 mmHg 80%

Tomorrow, 10 May, Monday

Time Temperature Precipitation Wind Pressure Humidity
00:00 +18°C° 0 mm 1 mps 706 mmHg 80%
01:00 +18°C° 0 mm 1 mps 706 mmHg 80%
02:00 +16°C° 0 mm 1 mps 705 mmHg 80%
03:00 +16°C° 0 mm 1 mps 705 mmHg 81%
04:00 +15°C° 0 mm 2 mps 705 mmHg 82%
05:00 +15°C° 0 mm 2 mps 705 mmHg 84%
06:00 +16°C° 0 mm 2 mps 706 mmHg 76%
07:00 +17°C° 0 mm 2 mps 706 mmHg 69%
08:00 +18°C° 0 mm 1 mps 706 mmHg 61%
09:00 +19°C° 0 mm 2 mps 706 mmHg 56%
10:00 +20°C° 0 mm 2 mps 706 mmHg 51%
11:00 +21°C° 0 mm 3 mps 706 mmHg 46%
12:00 +22°C° 0 mm 3 mps 706 mmHg 44%
13:00 +22°C° 0 mm 3 mps 706 mmHg 42%
14:00 +24°C° 0 mm 3 mps 706 mmHg 40%
15:00 +22°C° 0.1 mm 3 mps 706 mmHg 43%
16:00 +21°C° 0.1 mm 2 mps 705 mmHg 46%
17:00 +22°C° 0.1 mm 1 mps 705 mmHg 49%
18:00 +20°C° 0 mm 1 mps 705 mmHg 55%
19:00 +19°C° 0 mm 1 mps 705 mmHg 60%
20:00 +18°C° 0 mm 1 mps 705 mmHg 66%
21:00 +16°C° 0 mm 1 mps 705 mmHg 68%
22:00 +15°C° 0 mm 0 mps 705 mmHg 70%
23:00 +14°C° 0 mm 0 mps 705 mmHg 72%

Day after tomorrow, 11 May, Tuesday

Time Temperature Precipitation Wind Pressure Humidity
00:00 +14°C° 0 mm 0 mps 705 mmHg 72%
01:00 +14°C° 0 mm 0 mps 705 mmHg 71%
02:00 +15°C° 0 mm 1 mps 704 mmHg 70%
03:00 +14°C° 0 mm 1 mps 705 mmHg 71%
04:00 +14°C° 0 mm 1 mps 705 mmHg 72%
05:00 +13°C° 0 mm 1 mps 705 mmHg 73%
06:00 +15°C° 0 mm 1 mps 705 mmHg 64%
07:00 +18°C° 0 mm 1 mps 705 mmHg 55%
08:00 +20°C° 0 mm 1 mps 706 mmHg 47%
09:00 +22°C° 0 mm 1 mps 706 mmHg 42%
10:00 +23°C° 0 mm 2 mps 706 mmHg 38%
11:00 +24°C° 0 mm 3 mps 706 mmHg 33%
12:00 +25°C° 0 mm 3 mps 706 mmHg 31%
13:00 +26°C° 0 mm 3 mps 706 mmHg 29%
14:00 +26°C° 0 mm 3 mps 706 mmHg 26%
15:00 +26°C° 0 mm 3 mps 706 mmHg 27%
16:00 +26°C° 0 mm 3 mps 706 mmHg 28%
17:00 +26°C° 0 mm 3 mps 706 mmHg 29%
18:00 +22°C° 0 mm 3 mps 706 mmHg 35%
19:00 +20°C° 0 mm 2 mps 706 mmHg 40%
20:00 +19°C° 0 mm 1 mps 706 mmHg 46%
21:00 +19°C° 0 mm 1 mps 706 mmHg 48%
22:00 +17°C° 0 mm 2 mps 706 mmHg 49%
23:00 +16°C° 0 mm 2 mps 706 mmHg 50%

12 May, Wednesday

Time Temperature Precipitation Wind Pressure Humidity
00:00 +16°C° 0 mm 2 mps 706 mmHg 52%
01:00 +15°C° 0 mm 2 mps 706 mmHg 54%
02:00 +15°C° 0 mm 2 mps 706 mmHg 56%
03:00 +14°C° 0 mm 2 mps 706 mmHg 57%
04:00 +14°C° 0 mm 2 mps 706 mmHg 59%
05:00 +14°C° 0 mm 2 mps 706 mmHg 60%
06:00 +16°C° 0 mm 2 mps 707 mmHg 56%
07:00 +18°C° 0 mm 2 mps 707 mmHg 52%
08:00 +19°C° 0 mm 2 mps 708 mmHg 48%
09:00 +21°C° 0 mm 3 mps 708 mmHg 45%
10:00 +22°C° 0 mm 3 mps 708 mmHg 42%
11:00 +23°C° 0 mm 4 mps 708 mmHg 39%
12:00 +23°C° 0 mm 5 mps 708 mmHg 39%
13:00 +23°C° 0 mm 6 mps 708 mmHg 38%
14:00 +23°C° 0 mm 7 mps 708 mmHg 38%
15:00 +22°C° 0 mm 7 mps 708 mmHg 40%
16:00 +22°C° 0 mm 7 mps 709 mmHg 43%
17:00 +21°C° 0 mm 7 mps 709 mmHg 46%
18:00 +19°C° 0 mm 6 mps 708 mmHg 51%
19:00 +16°C° 0 mm 6 mps 708 mmHg 55%
20:00 +14°C° 0 mm 5 mps 708 mmHg 60%
21:00 +14°C° 0 mm 4 mps 708 mmHg 63%
22:00 +13°C° 0 mm 4 mps 707 mmHg 65%
23:00 +12°C° 0 mm 4 mps 707 mmHg 68%

13 May, Thursday

Time Temperature Precipitation Wind Pressure Humidity
00:00 +11°C° 0 mm 3 mps 707 mmHg 72%
01:00 +10°C° 0 mm 3 mps 706 mmHg 75%
02:00 +10°C° 0 mm 2 mps 706 mmHg 79%
03:00 +9°C° 0 mm 2 mps 706 mmHg 82%
04:00 +9°C° 0 mm 2 mps 706 mmHg 85%
05:00 +9°C° 0 mm 1 mps 706 mmHg 88%
06:00 +11°C° 0 mm 1 mps 706 mmHg 80%
07:00 +13°C° 0 mm 2 mps 706 mmHg 71%
08:00 +15°C° 0 mm 2 mps 706 mmHg 63%
09:00 +17°C° 0 mm 2 mps 706 mmHg 56%
10:00 +18°C° 0 mm 3 mps 706 mmHg 49%
11:00 +20°C° 0 mm 3 mps 706 mmHg 42%
12:00 +21°C° 0 mm 3 mps 706 mmHg 39%
13:00 +22°C° 0 mm 4 mps 706 mmHg 35%
14:00 +23°C° 0 mm 4 mps 705 mmHg 32%
15:00 +23°C° 0 mm 4 mps 705 mmHg 31%
16:00 +24°C° 0 mm 3 mps 705 mmHg 31%
17:00 +24°C° 0 mm 3 mps 705 mmHg 30%
18:00 +21°C° 0 mm 3 mps 705 mmHg 37%
19:00 +19°C° 0 mm 3 mps 705 mmHg 44%
20:00 +17°C° 0 mm 3 mps 705 mmHg 51%
21:00 +16°C° 0 mm 3 mps 705 mmHg 52%
22:00 +14°C° 0 mm 3 mps 705 mmHg 52%
23:00 +14°C° 0 mm 4 mps 705 mmHg 52%

14 May, Friday

Time Temperature Precipitation Wind Pressure Humidity
00:00 +13°C° 0 mm 3 mps 705 mmHg 53%
01:00 +12°C° 0 mm 3 mps 704 mmHg 55%
02:00 +13°C° 0 mm 2 mps 704 mmHg 56%
03:00 +12°C° 0 mm 2 mps 704 mmHg 58%
04:00 +10°C° 0 mm 2 mps 704 mmHg 59%
05:00 +11°C° 0 mm 1 mps 705 mmHg 61%
06:00 +13°C° 0 mm 1 mps 705 mmHg 56%
07:00 +15°C° 0 mm 1 mps 705 mmHg 50%
08:00 +18°C° 0 mm 1 mps 706 mmHg 45%
09:00 +19°C° 0 mm 2 mps 706 mmHg 41%
10:00 +21°C° 0 mm 3 mps 706 mmHg 37%
11:00 +22°C° 0 mm 4 mps 706 mmHg 33%
12:00 +23°C° 0 mm 5 mps 706 mmHg 32%
13:00 +25°C° 0 mm 5 mps 706 mmHg 31%
14:00 +26°C° 0 mm 6 mps 705 mmHg 29%
15:00 +26°C° 0 mm 6 mps 705 mmHg 30%
16:00 +26°C° 0 mm 6 mps 705 mmHg 31%
17:00 +26°C° 0 mm 6 mps 705 mmHg 32%
18:00 +23°C° 0 mm 5 mps 705 mmHg 37%
19:00 +21°C° 0 mm 4 mps 705 mmHg 42%
20:00 +18°C° 0 mm 4 mps 705 mmHg 47%
21:00 +18°C° 0 mm 4 mps 705 mmHg 48%
22:00 +17°C° 0 mm 4 mps 705 mmHg 49%
23:00 +15°C° 0 mm 4 mps 705 mmHg 50%
Show more